GW2622 Weather Reports


time (UTC)temp
C
wind
direction
speed
KPH
gust
KPH
rain 1hr
cm
rain 24hr
cm
rain mn
cm
humidity
%
barometer
mb
20260901225209 35 249 3.2 4.8 0.00 0.00 0.00 56 1012.7
20260901224705 35 173 6.4 8.0 0.00 0.00 0.00 55 1012.6
20260901224201 35 217 6.4 9.7 0.00 0.00 0.00 55 1012.6
20260901223657 35 264 4.8 8.0 0.00 0.00 0.00 56 1012.7
20260901223151 35 222 8.0 9.7 0.00 0.00 0.00 54 1012.6
20260901222648 35 213 4.8 9.7 0.00 0.00 0.00 55 1012.7
20260901222144 35 233 9.7 9.7 0.00 0.00 0.00 53 1012.7
20260901221639 35 228 9.7 11.3 0.00 0.00 0.00 52 1012.7
20260901221135 35 239 8.0 11.3 0.00 0.00 0.00 52 1012.5
20260901220634 35 216 8.0 11.3 0.00 0.00 0.00 52 1012.8
20260901220134 35 207 8.0 11.3 0.00 0.00 0.00 51 1012.8
20260901215632 35 216 6.4 12.9 0.00 0.00 0.00 51 1012.6
20260901215126 36 245 6.4 9.7 0.00 0.00 0.00 52 1012.8
20260901214624 35 249 6.4 12.9 0.00 0.00 0.00 50 1012.9
20260901214119 36 233 14.5 16.1 0.00 0.00 0.00 49 1012.8
20260901213613 35 207 8.0 12.9 0.00 0.00 0.00 51 1012.8
20260901213108 36 212 6.4 12.9 0.00 0.00 0.00 50 1012.8
20260901212608 36 210 8.0 11.3 0.00 0.00 0.00 49 1012.8
20260901212104 35 167 9.7 12.9 0.00 0.00 0.00 49 1012.8
20260901211558 35 212 11.3 17.7 0.00 0.00 0.00 49 1012.7
20260901211055 35 208 11.3 14.5 0.00 0.00 0.00 49 1012.7
20260901210550 36 192 11.3 16.1 0.00 0.00 0.00 50 1012.9
20260901210046 36 296 6.4 9.7 0.00 0.00 0.00 50 1012.9
20260901205541 36 217 9.7 16.1 0.00 0.00 0.00 49 1013.1
20260901205036 35 230 8.0 14.5 0.00 0.00 0.00 50 1012.9
20260901204532 36 227 9.7 17.7 0.00 0.00 0.00 49 1013.0
20260901204026 35 207 11.3 20.9 0.00 0.00 0.00 50 1013.2
20260901203521 35 216 12.9 16.1 0.00 0.00 0.00 50 1013.1
20260901203017 36 210 6.4 9.7 0.00 0.00 0.00 50 1013.2
20260901202511 35 232 8.0 12.9 0.00 0.00 0.00 49 1013.3
20260901202007 35 210 9.7 17.7 0.00 0.00 0.00 50 1013.4
20260901201502 35 236 6.4 16.1 0.00 0.00 0.00 52 1013.3
20260901201002 35 206 11.3 14.5 0.00 0.00 0.00 50 1013.5
20260901200451 35 242 11.3 16.1 0.00 0.00 0.00 49 1013.4
20260901195950 35 203 9.7 14.5 0.00 0.00 0.00 51 1013.5
20260901195448 35 226 11.3 14.5 0.00 0.00 0.00 52 1013.5
20260901194938 35 232 4.8 11.3 0.00 0.00 0.00 52 1013.5
20260901194432 35 216 8.0 11.3 0.00 0.00 0.00 51 1013.7
20260901193929 35 264 9.7 17.7 0.00 0.00 0.00 50 1013.9
20260901193427 35 172 6.4 16.1 0.00 0.00 0.00 49 1013.9
20260901192922 35 229 8.0 16.1 0.00 0.00 0.00 49 1014.1
20260901192417 35 236 12.9 16.1 0.00 0.00 0.00 51 1014.1
20260901191913 35 200 9.7 12.9 0.00 0.00 0.00 51 1014.1
20260901191408 35 193 11.3 16.1 0.00 0.00 0.00 53 1014.2
20260901190904 35 246 8.0 14.5 0.00 0.00 0.00 50 1014.2
20260901190359 35 181 9.7 12.9 0.00 0.00 0.00 50 1014.2
20260901185857 35 212 9.7 14.5 0.00 0.00 0.00 53 1014.4
20260901185356 35 284 4.8 8.0 0.00 0.00 0.00 52 1014.0
20260901184852 35 243 4.8 11.3 0.00 0.00 0.00 51 1014.4
20260901184347 35 209 9.7 11.3 0.00 0.00 0.00 51 1014.3
20260901183842 35 260 4.8 8.0 0.00 0.00 0.00 52 1014.5
20260901183341 34 219 8.0 12.9 0.00 0.00 0.00 55 1014.4
20260901182837 34 216 9.7 11.3 0.00 0.00 0.00 53 1014.6
20260901182332 34 207 6.4 11.3 0.00 0.00 0.00 54 1014.6
20260901181827 34 234 9.7 11.3 0.00 0.00 0.00 53 1014.6
20260901181321 34 265 8.0 9.7 0.00 0.00 0.00 53 1014.8
20260901180815 35 274 3.2 8.0 0.00 0.00 0.00 54 1014.8
20260901180314 34 254 3.2 9.7 0.00 0.00 0.00 56 1014.8
20260901175814 34 224 8.0 11.3 0.00 0.00 0.00 54 1014.8
20260901175308 33 224 4.8 8.0 0.00 0.00 0.00 55 1014.8
20260901174803 33 247 4.8 11.3 0.00 0.00 0.00 55 1014.9
20260901174259 33 196 12.9 14.5 0.00 0.00 0.00 55 1014.9
20260901173754 33 208 4.8 9.7 0.00 0.00 0.00 57 1014.9
20260901173249 33 218 4.8 9.7 0.00 0.00 0.00 56 1014.9
20260901172746 33 273 4.8 9.7 0.00 0.00 0.00 56 1014.9
20260901172244 33 215 8.0 11.3 0.00 0.00 0.00 55 1014.8
20260901171743 32 230 6.4 8.0 0.00 0.00 0.00 56 1015.0
20260901171242 32 264 3.2 14.5 0.00 0.00 0.00 55 1015.0
20260901170741 32 246 6.4 11.3 0.00 0.00 0.00 57 1015.0
20260901170236 33 208 9.7 12.9 0.00 0.00 0.00 56 1015.0
20260901165734 32 215 6.4 11.3 0.00 0.00 0.00 58 1015.1
20260901165229 32 224 6.4 11.3 0.00 0.00 0.00 61 1015.1
20260901164726 32 256 8.0 12.9 0.00 0.00 0.00 58 1015.2
20260901164221 32 214 6.4 9.7 0.00 0.00 0.00 59 1015.1
20260901163716 32 258 4.8 11.3 0.00 0.00 0.00 61 1015.0
20260901163215 32 203 6.4 8.0 0.00 0.00 0.00 62 1015.1
20260901162710 32 213 6.4 9.7 0.00 0.00 0.00 62 1015.1
20260901162210 31 265 8.0 11.3 0.00 0.00 0.00 62 1015.2
20260901161708 31 211 11.3 12.9 0.00 0.00 0.00 62 1015.0
20260901161203 31 278 4.8 11.3 0.00 0.00 0.00 65 1015.2
20260901160700 31 211 6.4 11.3 0.00 0.00 0.00 65 1015.1
20260901160155 31 213 4.8 12.9 0.00 0.00 0.00 66 1015.0
20260901155653 30 212 3.2 8.0 0.00 0.00 0.00 68 1014.9
20260901155149 30 215 6.4 9.7 0.00 0.00 0.00 66 1015.0
20260901154644 30 205 8.0 12.9 0.00 0.00 0.00 66 1015.1
20260901154138 30 226 4.8 11.3 0.00 0.00 0.00 69 1014.9
20260901153634 30 226 9.7 11.3 0.00 0.00 0.00 66 1014.8
20260901153127 30 199 6.4 9.7 0.00 0.00 0.00 69 1014.9
20260901152623 30 222 9.7 12.9 0.00 0.00 0.00 68 1015.1
20260901152121 29 216 4.8 12.9 0.00 0.00 0.00 70 1015.0
20260901151617 29 210 6.4 11.3 0.00 0.00 0.00 72 1015.2
20260901151116 28 204 6.4 12.9 0.00 0.00 0.00 72 1015.1
20260901150615 28 181 8.0 16.1 0.00 0.00 0.00 74 1015.1
20260901150113 28 185 8.0 12.9 0.00 0.00 0.00 74 1015.2
20260901145607 28 226 8.0 11.3 0.00 0.00 0.00 74 1015.1
20260901145106 28 220 6.4 11.3 0.00 0.00 0.00 75 1015.0
20260901144602 28 229 8.0 9.7 0.00 0.00 0.00 75 1015.1
20260901144057 28 214 3.2 4.8 0.00 0.00 0.00 77 1015.1
20260901143552 27 198 4.8 9.7 0.00 0.00 0.00 77 1015.2
20260901143049 27 204 6.4 9.7 0.00 0.00 0.00 79 1015.1
20260901142544 27 198 8.0 11.3 0.00 0.00 0.00 78 1015.0
20260901142043 27 230 3.2 8.0 0.00 0.00 0.00 80 1014.9
20260901141538 26 215 8.0 9.7 0.00 0.00 0.00 81 1015.1
20260901141033 26 228 6.4 11.3 0.00 0.00 0.00 81 1015.0
20260901140531 26 172 4.8 8.0 0.00 0.00 0.00 81 1015.1
20260901140021 26 245 3.2 8.0 0.00 0.00 0.00 82 1015.0
20260901135520 26 212 6.4 8.0 0.00 0.00 0.00 83 1015.2
20260901135016 26 213 6.4 9.7 0.00 0.00 0.00 85 1015.1
20260901134512 25 253 3.2 4.8 0.00 0.00 0.00 85 1015.0
20260901134006 25 186 4.8 8.0 0.00 0.00 0.00 86 1015.1
20260901133505 25 239 3.2 8.0 0.00 0.00 0.00 86 1015.1
20260901133003 25 236 3.2 4.8 0.00 0.00 0.00 88 1015.0
20260901132458 25 188 3.2 4.8 0.00 0.00 0.00 88 1015.2
20260901131956 25 248 1.6 4.8 0.00 0.00 0.00 89 1015.1
20260901131451 25 189 4.8 4.8 0.00 0.00 0.00 89 1015.1
20260901130947 25 221 3.2 4.8 0.00 0.00 0.00 89 1015.2
20260901130441 25 249 4.8 8.0 0.00 0.00 0.00 88 1015.1
20260901125939 25 263 1.6 4.8 0.00 0.00 0.00 91 1015.3
20260901125438 25 190 3.2 4.8 0.00 0.00 0.00 92 1015.2
20260901124933 25 195 4.8 4.8 0.00 0.00 0.00 92 1015.2
20260901124428 25 195 4.8 4.8 0.00 0.00 0.00 92 1015.2
20260901123923 24 235 3.2 3.2 0.00 0.00 0.00 93 1015.2
20260901123418 24 203 3.2 3.2 0.00 0.00 0.00 93 1015.0
20260901122916 24 261 1.6 1.6 0.00 0.00 0.00 93 1015.1
20260901122411 24 204 1.6 3.2 0.00 0.00 0.00 94 1014.9
20260901121910 23 269 0.0 1.6 0.00 0.00 0.00 94 1014.9
20260901121405 23 233 1.6 4.8 0.00 0.00 0.00 94 1014.9
20260901120901 23 247 1.6 3.2 0.00 0.00 0.00 95 1015.0
20260901120355 23 265 0.0 3.2 0.00 0.00 0.00 96 1015.0
20260901115850 23 241 1.6 1.6 0.00 0.00 0.00 98 1015.1
20260901115345 23 213 3.2 3.2 0.00 0.00 0.00 98 1015.0
20260901114843 23 189 3.2 3.2 0.00 0.00 0.00 99 1014.7
20260901114338 23 232 1.6 3.2 0.00 0.00 0.00 99 1014.7
20260901113836 23 188 1.6 4.8 0.00 0.00 0.00 99 1014.7
20260901113335 23 185 3.2 4.8 0.00 0.00 0.00 99 1014.6
20260901112831 23 189 4.8 4.8 0.00 0.00 0.00 99 1014.8
20260901112330 23 178 4.8 4.8 0.00 0.00 0.00 99 1014.7
20260901111825 23 189 3.2 4.8 0.00 0.00 0.00 99 1014.6
20260901111324 23 181 3.2 4.8 0.00 0.00 0.00 99 1014.6
20260901110823 23 258 0.0 0.0 0.00 0.00 0.00 99 1014.8
20260901110319 23 249 1.6 1.6 0.00 0.00 0.00 99 1014.7
20260901105815 23 264 1.6 1.6 0.00 0.00 0.00 99 1014.8
20260901105314 23 269 0.0 3.2 0.00 0.00 0.00 99 1014.6
20260901104811 23 204 1.6 3.2 0.00 0.00 0.00 99 1014.5
20260901104306 23 186 3.2 3.2 0.00 0.00 0.00 99 1014.5
20260901103801 23 245 1.6 3.2 0.00 0.00 0.00 99 1014.6
20260901103255 23 201 1.6 3.2 0.00 0.00 0.00 99 1014.7
20260901102750 23 187 3.2 4.8 0.00 0.00 0.00 99 1014.7
20260901102250 23 205 3.2 4.8 0.00 0.00 0.00 99 1014.7
20260901101746 23 252 3.2 3.2 0.00 0.00 0.00 99 1014.7
20260901101245 23 271 0.0 1.6 0.00 0.00 0.00 99 1014.6
20260901100745 23 297 0.0 0.0 0.00 0.00 0.00 99 1014.7
20260901100240 23 297 0.0 0.0 0.00 0.00 0.00 99 1014.5
20260901095738 23 297 0.0 0.0 0.00 0.00 0.00 99 1014.5
20260901095236 23 297 0.0 0.0 0.00 0.00 0.00 99 1014.5
20260901094731 23 297 0.0 0.0 0.00 0.00 0.00 99 1014.5
20260901094226 23 297 0.0 0.0 0.00 0.00 0.00 99 1014.4
20260901093721 23 305 0.0 0.0 0.00 0.00 0.00 99 1014.6
20260901093220 23 335 1.6 1.6 0.00 0.00 0.00 99 1014.4
20260901092716 23 32 1.6 1.6 0.00 0.00 0.00 99 1014.4
20260901092212 23 346 0.0 1.6 0.00 0.00 0.00 99 1014.4
20260901091707 23 310 0.0 1.6 0.00 0.00 0.00 99 1014.3
20260901091202 23 330 0.0 3.2 0.00 0.00 0.00 99 1014.6
20260901090656 23 319 0.0 3.2 0.00 0.00 0.00 99 1014.6
20260901090152 23 323 0.0 1.6 0.00 0.00 0.00 99 1014.8
20260901085648 23 327 0.0 1.6 0.00 0.00 0.00 99 1014.6
20260901085143 23 326 0.0 1.6 0.00 0.00 0.00 99 1014.6
20260901084639 23 281 0.0 0.0 0.00 0.00 0.00 99 1014.6
20260901084135 23 281 0.0 1.6 0.00 0.00 0.00 99 1014.5
20260901083630 23 281 0.0 0.0 0.00 0.00 0.00 99 1014.5
20260901083128 23 281 0.0 0.0 0.00 0.00 0.00 99 1014.7
20260901082623 23 281 0.0 0.0 0.00 0.00 0.00 99 1014.6
20260901082118 23 281 0.0 0.0 0.00 0.00 0.00 99 1014.4
20260901081614 23 281 0.0 0.0 0.00 0.00 0.00 99 1014.6
20260901081114 23 280 0.0 0.0 0.00 0.00 0.00 99 1014.4
20260901080608 23 280 0.0 0.0 0.00 0.00 0.00 99 1014.4
20260901080107 24 269 0.0 0.0 0.00 0.00 0.00 99 1014.5
20260901075603 24 226 0.0 0.0 0.00 0.00 0.00 99 1014.4
20260901075102 24 226 1.6 1.6 0.00 0.00 0.00 99 1014.3
20260901074601 24 225 1.6 3.2 0.00 0.00 0.00 99 1014.4
20260901074057 24 225 3.2 4.8 0.00 0.00 0.00 99 1014.5
20260901073554 24 237 3.2 3.2 0.00 0.00 0.00 99 1014.5
20260901073053 24 254 0.0 0.0 0.00 0.00 0.00 99 1014.5
20260901072549 24 254 0.0 0.0 0.00 0.00 0.00 99 1014.5
20260901072043 24 271 0.0 0.0 0.00 0.00 0.00 99 1014.8
20260901071538 24 271 0.0 0.0 0.00 0.00 0.00 99 1014.8
20260901071036 24 271 0.0 0.0 0.00 0.00 0.00 99 1014.6
20260901070532 24 271 0.0 0.0 0.00 0.00 0.00 99 1014.6
20260901070027 24 271 0.0 0.0 0.00 0.00 0.00 99 1014.6
20260901065521 24 272 0.0 0.0 0.00 0.00 0.00 99 1014.7
20260901065015 24 272 0.0 0.0 0.00 0.00 0.00 99 1014.9
20260901064507 24 272 0.0 0.0 0.00 0.00 0.00 99 1014.7
20260901064004 24 272 0.0 0.0 0.00 0.00 0.00 99 1015.1
20260901063500 25 272 0.0 0.0 0.00 0.00 0.00 98 1015.0
20260901062955 25 272 0.0 0.0 0.00 0.00 0.00 98 1015.0
20260901062451 25 272 0.0 0.0 0.00 0.00 0.00 98 1015.0
20260901061947 25 272 0.0 0.0 0.00 0.00 0.00 98 1015.1
20260901061443 25 272 0.0 0.0 0.00 0.00 0.00 98 1015.0
20260901060942 25 272 0.0 0.0 0.00 0.00 0.00 97 1014.9
20260901060437 25 272 0.0 0.0 0.00 0.00 0.00 97 1014.8
20260901055932 25 272 0.0 0.0 0.00 0.00 0.00 97 1015.0
20260901055429 25 272 0.0 0.0 0.00 0.00 0.00 97 1014.7
20260901054925 25 272 0.0 0.0 0.00 0.00 0.00 98 1014.8
20260901054422 25 272 0.0 0.0 0.00 0.00 0.00 98 1014.8
20260901053918 25 272 0.0 0.0 0.00 0.00 0.00 98 1014.7
20260901053413 25 272 0.0 0.0 0.00 0.00 0.00 98 1014.8
20260901052908 25 272 0.0 0.0 0.00 0.00 0.00 98 1014.8
20260901052403 25 272 0.0 0.0 0.00 0.00 0.00 98 1014.8
20260901051902 25 272 0.0 0.0 0.00 0.00 0.00 98 1014.9
20260901051357 25 272 0.0 0.0 0.00 0.00 0.00 98 1014.7
20260901050852 25 272 0.0 0.0 0.00 0.00 0.00 98 1014.6
20260901050348 25 272 0.0 0.0 0.00 0.00 0.00 98 1014.6
20260901045843 25 272 0.0 0.0 0.00 0.00 0.00 98 1014.5
20260901045342 25 272 0.0 0.0 0.00 0.00 0.00 98 1014.6
20260901044838 25 272 0.0 0.0 0.00 0.00 0.00 98 1014.6
20260901044334 25 272 0.0 0.0 0.00 0.00 0.00 98 1014.5
20260901043829 25 273 0.0 0.0 0.00 0.00 0.00 98 1014.4
20260901043325 25 273 0.0 0.0 0.00 0.00 0.00 97 1014.4
20260901042824 25 272 0.0 0.0 0.00 0.00 0.00 97 1014.5
20260901042319 25 273 0.0 0.0 0.00 0.00 0.00 96 1014.4
20260901041815 25 272 0.0 0.0 0.00 0.00 0.00 96 1014.3
20260901041310 26 272 0.0 0.0 0.00 0.00 0.00 95 1014.1
20260901040804 26 273 0.0 0.0 0.00 0.00 0.00 95 1014.1
20260901040303 26 273 0.0 0.0 0.00 0.00 0.00 97 1014.1
20260901035803 25 273 0.0 0.0 0.00 0.00 0.00 97 1014.0
20260901035305 26 273 0.0 0.0 0.00 0.00 0.00 96 1014.2
20260901034801 25 273 0.0 0.0 0.00 0.00 0.00 95 1014.0
20260901034256 26 272 0.0 0.0 0.00 0.00 0.00 95 1014.2
20260901033755 26 272 0.0 0.0 0.00 0.00 0.00 95 1014.1
20260901033255 26 273 0.0 0.0 0.00 0.00 0.00 95 1014.2
20260901032753 26 273 0.0 0.0 0.00 0.00 0.00 95 1014.2
20260901032248 26 272 0.0 0.0 0.00 0.00 0.00 94 1014.1
20260901031743 26 272 0.0 0.0 0.00 0.00 0.00 94 1014.1
20260901031239 26 272 0.0 0.0 0.00 0.00 0.00 93 1014.3
20260901030733 26 272 0.0 0.0 0.00 0.00 0.00 92 1014.3
20260901030228 27 272 0.0 0.0 0.00 0.00 0.00 91 1014.0
20260901025722 27 272 0.0 0.0 0.00 0.00 0.00 90 1014.1
20260901025217 27 272 0.0 0.0 0.00 0.00 0.00 90 1014.1
20260901024712 27 275 0.0 0.0 0.00 0.00 0.00 90 1014.2
20260901024211 27 275 0.0 0.0 0.00 0.00 0.00 90 1014.1
20260901023709 27 275 0.0 0.0 0.00 0.00 0.00 89 1014.3
20260901023204 27 275 0.0 0.0 0.00 0.00 0.00 90 1014.3
20260901022700 27 275 0.0 0.0 0.00 0.00 0.00 89 1014.2
20260901022155 27 275 0.0 0.0 0.00 0.00 0.00 89 1014.2
20260901021650 27 275 0.0 0.0 0.00 0.00 0.00 90 1014.2
20260901021145 27 275 0.0 0.0 0.00 0.00 0.00 90 1014.3
20260901020641 27 275 0.0 0.0 0.00 0.00 0.00 89 1014.2
20260901020137 27 275 0.0 0.0 0.00 0.00 0.00 89 1014.0
20260901015632 27 275 0.0 0.0 0.00 0.00 0.00 88 1013.7
20260901015131 27 275 0.0 0.0 0.00 0.00 0.00 87 1013.9
20260901014626 28 275 0.0 0.0 0.00 0.00 0.00 87 1014.0
20260901014122 27 275 0.0 0.0 0.00 0.00 0.00 88 1013.7
20260901013618 27 275 0.0 0.0 0.00 0.00 0.00 88 1013.9
20260901013114 27 275 0.0 0.0 0.00 0.00 0.00 88 1013.7
20260901012613 28 275 0.0 0.0 0.00 0.00 0.00 86 1013.5
20260901012108 28 275 0.0 0.0 0.00 0.00 0.00 85 1013.4
20260901011605 28 275 0.0 0.0 0.00 0.00 0.00 84 1013.4
20260901011103 29 275 0.0 0.0 0.00 0.00 0.00 83 1013.2
20260901010558 29 275 0.0 0.0 0.00 0.00 0.00 82 1013.1
20260901010056 30 275 0.0 0.0 0.00 0.00 0.00 82 1013.3
20260901005552 30 275 0.0 0.0 0.00 0.00 0.00 80 1013.4
20260901005047 30 275 0.0 0.0 0.00 0.00 0.00 80 1013.4
20260901004546 30 275 0.0 0.0 0.00 0.00 0.00 81 1013.3
20260901004041 30 275 0.0 0.0 0.00 0.00 0.00 82 1013.2
20260901003536 30 275 0.0 0.0 0.00 0.00 0.00 81 1013.2
20260901003034 30 275 0.0 0.0 0.00 0.00 0.00 80 1013.3
20260901002534 31 275 0.0 0.0 0.00 0.00 0.00 78 1013.1
20260901002029 31 275 0.0 0.0 0.00 0.00 0.00 78 1013.1
20260901001524 31 275 0.0 0.0 0.00 0.00 0.00 76 1013.1
20260901001019 31 275 0.0 0.0 0.00 0.00 0.00 76 1013.4
20260901000514 31 275 0.0 0.0 0.00 0.00 0.00 75 1013.1
20260901000010 31 276 0.0 0.0 0.00 0.00 0.00 75 1013.3
20260831235503 31 276 0.0 1.6 0.00 0.00 0.00 74 1013.3
20260831234959 31 272 1.6 3.2 0.00 0.00 0.00 74 1013.3
20260831234453 32 259 3.2 4.8 0.00 0.00 0.00 71 1013.1
20260831233948 32 229 3.2 8.0 0.00 0.00 0.00 71 1012.9
20260831233443 32 234 4.8 4.8 0.00 0.00 0.00 71 1013.1
20260831232939 32 221 6.4 8.0 0.00 0.00 0.00 71 1013.0
20260831232435 33 215 4.8 8.0 0.00 0.00 0.00 71 1013.1
20260831231930 33 241 4.8 9.7 0.00 0.00 0.00 70 1013.2
20260831231426 33 282 4.8 4.8 0.00 0.00 0.00 69 1013.1
20260831230922 33 269 1.6 3.2 0.00 0.00 0.00 68 1013.1
20260831230417 33 235 4.8 8.0 0.00 0.00 0.00 67 1013.1
20260831225911 33 229 4.8 4.8 0.00 0.00 0.00 66 1012.9
20260831225407 33 277 1.6 8.0 0.00 0.00 0.00 66 1013.0